Simultaneous Nadir Overpasses (SNOs) Predictions

Prediction of SNOs between AQUA and NPP Satellite Orbit:

Table of predicted SNOs for the next 14.0 days since TLE Epoch: 1/9/2021
Index Date (AQUA) Time (AQUA) Lat,Lon (AQUA) SZA (AQUA ) Date (NPP) Time (NPP) Lat,Lon (NPP) SZA (NPP ) Distance(km) Time Diff (sec)
1 01/11/2021 14:05:12 -75.60, 26.55 60.75 01/11/2021 14:04:25 -75.59, 26.51 60.70 1.04 47
2 01/11/2021 14:54:14 76.72,-162.22 117.99 01/11/2021 14:54:44 76.72,-162.21 117.96 0.48 30
3 01/14/2021 06:21:28 -76.21, 144.30 61.82 01/14/2021 06:21:07 -76.22, 144.36 61.82 1.61 21
4 01/14/2021 07:10:39 76.89, -45.75 117.41 01/14/2021 07:11:36 76.88, -45.83 117.38 2.24 57
5 01/16/2021 21:48:46 75.35, 89.97 118.71 01/16/2021 21:47:35 75.35, 89.99 118.77 0.47 71
6 01/16/2021 22:37:53 -76.38, -99.27 62.45 01/16/2021 22:37:59 -76.37, -99.31 62.45 1.11 6
7 01/19/2021 14:05:08 75.61,-153.40 117.93 01/19/2021 14:04:24 75.60,-153.46 117.99 1.78 44
8 01/19/2021 14:54:09 -76.92, 18.48 63.56 01/19/2021 14:54:41 -76.93, 18.58 63.62 2.62 32
9 01/22/2021 06:21:22 76.30, -35.38 116.61 01/22/2021 06:21:04 76.31, -35.30 116.61 2.31 18



Historial Predications of SNOs between AQUA and NPP
